This is the latest recevied weather packets stored in our database for station/object DM3DP. If no packets are shown the sender has not sent any weather packets the latest 1 day(s).
| Time | Temp. | Humidity | Pressure | Rain* | Wind** | Luminosity | Snow |
|---|---|---|---|---|---|---|---|
| 1836274679 | 13.89° C | 93% | 1015.2 hPa | 0 mm | 0.89 m/s, 195° | 0 W/m² | - |
| 1836274584 | 13.89° C | 93% | 1015.2 hPa | 0 mm | 1.34 m/s, 218° | 0 W/m² | - |
| 1836274345 | 13.89° C | 93% | 1015.3 hPa | 0 mm | 0.89 m/s, 192° | 0 W/m² | - |
| 1836274254 | 13.89° C | 93% | 1015.2 hPa | 0 mm | 1.34 m/s, 219° | 0 W/m² | - |
| 1836274015 | 13.89° C | 92% | 1015.5 hPa | 0 mm | 0.89 m/s, 180° | 0 W/m² | - |
| 1778035131 | 11.11° C | 99% | 1003.7 hPa | 0.51 mm | 0.45 m/s, 171° | 0 W/m² | - |
| 1778034802 | 11.11° C | 99% | 1003.7 hPa | 0.51 mm | 0.45 m/s, 167° | 0 W/m² | - |
| 1778034471 | 11.11° C | 99% | 1003.7 hPa | 0.51 mm | 0.45 m/s, 169° | 0 W/m² | - |
| 1778034141 | 11.11° C | 99% | 1003.7 hPa | 0.51 mm | 0.45 m/s, 173° | 0 W/m² | - |
| 1778033811 | 11.11° C | 99% | 1003.7 hPa | 0.51 mm | 0 m/s | 0 W/m² | - |
| 1778033481 | 11.11° C | 99% | 1003.7 hPa | 0.51 mm | 0 m/s | 0 W/m² | - |
| 1778033151 | 11.11° C | 99% | 1003.7 hPa | 0.51 mm | 0.45 m/s, 160° | 0 W/m² | - |
| 1778032551 | 11.11° C | 99% | 1003.8 hPa | 0.51 mm | 0.45 m/s, 194° | 0 W/m² | - |
| 1778032222 | 11.11° C | 99% | 1003.9 hPa | 0.51 mm | 0 m/s | 0 W/m² | - |
| 1778031891 | 11.11° C | 99% | 1003.9 hPa | 0.51 mm | 0 m/s | 0 W/m² | - |
| 1778031561 | 11.11° C | 99% | 1003.9 hPa | 0.51 mm | 0.45 m/s, 177° | 0 W/m² | - |
| 1778031231 | 11.11° C | 99% | 1003.9 hPa | 0.76 mm | 0.45 m/s, 210° | 0 W/m² | - |
| 1778030901 | 11.11° C | 99% | 1004 hPa | 0.51 mm | 0.45 m/s, 167° | 0 W/m² | - |
| 1778030571 | 11.11° C | 99% | 1004 hPa | 0.51 mm | 0.45 m/s, 180° | 0 W/m² | - |
| 1778030241 | 11.11° C | 99% | 1004 hPa | 0.51 mm | 0 m/s | 0 W/m² | - |
| 1778029911 | 11.11° C | 99% | 1004 hPa | 0.51 mm | 0.45 m/s, 173° | 0 W/m² | - |
| 1778029581 | 11.11° C | 99% | 1004 hPa | 0.76 mm | 0.45 m/s, 206° | 0 W/m² | - |
| 1778029252 | 11.11° C | 99% | 1004 hPa | 0.51 mm | 0.45 m/s, 163° | 0 W/m² | - |
| 1778028921 | 11.11° C | 99% | 1004 hPa | 0.51 mm | 0.45 m/s, 254° | 0 W/m² | - |
| 1778028591 | 11.11° C | 99% | 1004.1 hPa | 0.51 mm | 0.45 m/s, 169° | 0 W/m² | - |
* Rain latest hour (hover to see other rain measurements)
** Current wind speed in m/s (hover to see current wind gust speed)